This demonstration page uses our WeatherBlox Daily Observations layout. Learn more.

Hourly Observations for May 20, 2018

Temp ( °F °C ) Dew Point ( °F °C ) Humidity (%) Winds ( mph kmh ) Pressure ( in mb ) Visibility ( mi km ) Precip ( " mm )
12:54 am 00:54 Clear with Mist and Fog 53 11.7 51 10.6 93 93 N 8 13 30.03 1017 5 8.0467 0 0
1:37 am 01:37 Mostly Cloudy with Mist and Fog 54 12.2 53 11.7 97 97 N 6 9 30.06 1018 6 9.65604 0 0
1:54 am 01:54 Cloudy with Mist and Fog 55 12.8 53 11.7 93 93 N 7 11 30.05 1018 6 9.65604 0 0
2:02 am 02:02 Cloudy with Mist and Fog 54 12.2 53 11.7 97 97 N 6 9 30.06 1018 6 9.65604 0 0
2:17 am 02:17 Cloudy with Mist and Fog 55 12.8 53 11.7 93 93 N 8 13 30.06 1018 6 9.65604 0 0
2:34 am 02:34 Cloudy with Mist and Fog 56 13.3 53 11.7 90 90 N 9 15 30.03 1017 6 9.65604 0 0
2:54 am 02:54 Cloudy with Light Rain 56 13.3 54 12.2 93 93 WNW 10 17 30.05 1018 4 6.43736 0.02 0.508
3:25 am 03:25 Cloudy with Light Rain 56 13.3 54 12.2 93 93 NNW 8 13 30.06 1018 6 9.65604 0 0.0254
3:36 am 03:36 Cloudy with Heavy Rain 57 13.9 54 12.2 90 90 NW 5 7 30.06 1018 2.5 4.02335 0.02 0.508
3:47 am 03:47 Cloudy with Rain 56 13.3 54 12.2 93 93 N 8 13 30.06 1018 3 4.82802 0.06 1.524
3:54 am 03:54 Cloudy with Rain 56 13.3 54 12.2 93 93 N 6 9 30.05 1018 4 6.43736 0.07 1.778
4:16 am 04:16 Cloudy with Mist and Fog 56 13.3 55 12.8 97 97 N 8 13 30.06 1018 5 8.0467 0 0.0254
4:27 am 04:27 Cloudy with Light Rain 56 13.3 55 12.8 97 97 NNW 7 11 30.06 1018 5 8.0467 0 0.0254
4:54 am 04:54 Cloudy with Heavy Rain 56 13.3 55 12.8 97 97 NNE 6 9 30.06 1018 3 4.82802 0 0.0254
5:02 am 05:02 Cloudy with Rain 56 13.3 55 12.8 97 97 N 7 11 30.06 1018 2 3.21868 0.06 1.524
5:12 am 05:12 Cloudy with Light Rain 56 13.3 55 12.8 97 97 N 7 11 30.06 1018 4 6.43736 0.07 1.778
5:54 am 05:54 Cloudy with Mist and Fog 56 13.3 55 12.8 97 97 N 6 9 30.05 1018 4 6.43736 0.07 1.778
6:30 am 06:30 Cloudy with Mist and Fog 56 13.3 54 12.2 93 93 N 7 11 30.06 1018 3 4.82802 0 0
6:43 am 06:43 Cloudy with Mist and Fog 56 13.3 55 12.8 97 97 N 7 11 30.09 1019 4 6.43736 0 0
6:54 am 06:54 Cloudy with Mist and Fog 57 13.9 55 12.8 93 93 N 5 7 30.08 1019 3 4.82802 0 0
7:54 am 07:54 Cloudy with Mist and Fog 57 13.9 55 12.8 93 93 NNE 9 15 30.1 1019 4 6.43736 0 0
8:54 am 08:54 Cloudy with Mist and Fog 57 13.9 54 12.2 90 90 NNE 10 17 30.11 1020 5 8.0467 0 0
9:34 am 09:34 Cloudy with Rain 56 13.3 54 12.2 93 93 NNE 10 17 30.12 1020 2.5 4.02335 0.02 0.508
9:44 am 09:44 Cloudy with Light Rain 56 13.3 54 12.2 93 93 NNE 10 17 30.12 1020 4 6.43736 0.02 0.508
9:54 am 09:54 Cloudy with Mist and Fog 56 13.3 54 12.2 93 93 NNE 12 19 30.12 1020 5 8.0467 0.02 0.508
10:54 am 10:54 Cloudy with Light Rain 57 13.9 54 12.2 90 90 NNE 12 19 30.13 1020 5 8.0467 0 0.0254
11:54 am 11:54 Cloudy 57 13.9 53 11.7 87 87 N 13 20 30.13 1020 7 11.26538 0 0.0254
12:51 pm 12:51 Cloudy with Heavy Rain 55 13 54 12 94 94 NNE 12 19 30.15 1021 2.5 4.02335 0.03 0.762
12:52 pm 12:52 Cloudy with Rain 56 13.3 53 11.7 90 90 NE 12 19 30.14 1021 2.5 4.02335 0.03 0.762
1:00 pm 13:00 Cloudy with Light Rain 56 13.3 53 11.7 90 90 NNE 13 20 30.12 1020 4 6.43736 0.01 0.254
1:32 pm 13:32 Cloudy with Mist and Fog 55 12.8 53 11.7 93 93 NNE 10 17 30.12 1020 6 9.65604 0.01 0.254
1:54 pm 13:54 Cloudy 56 13.3 53 11.7 90 90 N 12 19 30.11 1020 7 11.26538 0.01 0.254
2:54 pm 14:54 Cloudy with Mist and Fog 56 13.3 53 11.7 90 90 N 12 19 30.11 1020 6 9.65604 0 0
3:54 pm 15:54 Cloudy with Light Rain 56 13.3 53 11.7 90 90 NNE 10 17 30.1 1019 9 14.48406 0.04 1.016
4:06 pm 16:06 Cloudy 56 13.3 53 11.7 90 90 NNE 9 15 30.12 1020 9 14.48406 0 0.0254
4:54 pm 16:54 Cloudy with Mist and Fog 55 12.8 53 11.7 93 93 N 10 17 30.09 1019 4 6.43736 0 0.0254
5:54 pm 17:54 Cloudy 55 12.8 53 11.7 93 93 N 8 13 30.09 1019 9 14.48406 0 0
6:01 pm 18:01 Cloudy 55 12.8 52 11.1 90 90 N 7 11 30.09 1019 9 14.48406 0 0
6:21 pm 18:21 Cloudy 55 12.8 53 11.7 93 93 N 8 13 30.09 1019 7 11.26538 0 0
6:38 pm 18:38 Cloudy with Mist and Fog 55 12.8 53 11.7 93 93 N 10 17 30.09 1019 2 3.21868 0 0
6:54 pm 18:54 Cloudy with Mist and Fog 55 12.8 53 11.7 93 93 N 8 13 30.08 1019 2 3.21868 0 0
7:10 pm 19:10 Cloudy with Mist and Fog 54 12.2 53 11.7 97 97 N 10 17 30.09 1019 3 4.82802 0 0
7:54 pm 19:54 Cloudy with Mist and Fog 55 12.8 53 11.7 93 93 N 9 15 30.08 1019 4 6.43736 0 0
8:54 pm 20:54 Cloudy 55 12.8 53 11.7 93 93 N 8 13 30.07 1018 7 11.26538 0 0
9:54 pm 21:54 Cloudy with Mist and Fog 55 12.8 53 11.7 93 93 NNW 8 13 30.09 1019 3 4.82802 0 0
10:54 pm 22:54 Cloudy with Mist and Fog 54 12.2 53 11.7 97 97 NW 6 9 30.11 1020 2.5 4.02335 0 0.0254
11:09 pm 23:09 Cloudy with Mist and Fog 54 12.2 53 11.7 97 97 WNW 6 9 30.12 1020 2.5 4.02335 0 0
11:54 pm 23:54 Cloudy with Mist and Fog 54 12.2 53 11.7 97 97 NW 7 11 30.09 1019 3 4.82802 0 0

Powered by AerisWeather